Wind_Speed
29 30 32 32 32 31 30 28 27 26 26 26 26 25 25 23 20 17 16 17 16 14 13 15 16 18 19 20 20 19 20 21 21 20 21 22 22 22 22 23 23 24 24 26 27 28 29 31 32 33 33 34 36 37 39 40 41 43 44 45 45 45 45
30 32 34 34 34 32 30 29 27 27 27 28 28 28 28 26 22 19 18 19 18 16 15 15 17 19 21 22 22 22 22 23 23 23 23 24 24 23 23 23 23 24 25 27 28 29 30 32 33 33 33 35 36 37 38 40 41 42 43 44 45 46 46
31 34 34 34 35 33 31 30 29 29 29 28 28 28 27 25 22 22 22 20 19 18 17 17 18 21 23 24 25 25 25 25 25 25 25 26 25 24 24 24 24 25 26 28 29 30 31 33 34 35 35 35 35 37 38 39 40 41 43 44 45 45 46
33 36 36 35 36 34 32 32 32 32 32 30 29 27 26 24 23 26 26 23 20 20 20 20 20 22 24 26 27 27 27 28 28 28 28 27 27 26 25 25 25 26 27 29 30 31 33 35 36 37 37 37 38 38 39 40 41 43 44 46 47 47 46
36 39 39 38 39 37 34 34 35 35 33 31 30 28 27 26 26 28 29 27 24 22 23 23 23 24 26 27 29 29 30 31 30 30 29 28 28 28 27 27 27 28 29 31 32 32 34 36 38 39 40 40 41 41 41 42 43 44 46 48 49 48 45
37 39 41 40 41 39 37 37 37 35 34 33 31 30 30 29 29 30 30 29 27 25 25 26 26 27 27 28 30 31 32 33 33 32 31 30 30 30 29 29 30 30 31 32 33 34 35 36 38 40 41 42 43 44 44 45 45 46 48 50 51 48 44
40 40 42 43 43 42 39 39 37 36 36 35 34 33 32 32 31 31 30 30 29 28 28 28 29 29 29 30 31 32 34 35 35 34 32 32 32 32 32 32 32 33 34 34 35 36 36 37 39 40 42 43 44 45 46 47 48 48 51 53 51 47 45
44 43 44 45 46 44 41 39 38 37 37 37 36 35 34 33 33 32 32 33 32 31 31 30 31 31 31 31 32 34 36 37 37 35 34 34 34 34 34 34 35 35 36 36 37 38 38 39 41 42 43 44 46 47 48 49 50 50 53 54 49 47 50
47 45 47 47 48 48 43 40 39 39 39 39 39 37 36 35 34 33 34 34 34 34 34 33 33 32 32 33 34 36 38 39 38 38 37 37 36 37 37 37 38 38 38 39 39 40 41 42 43 44 45 46 47 48 49 50 50 51 53 52 49 51 56
49 46 49 50 49 50 47 43 42 41 41 42 41 39 39 38 36 36 35 34 34 34 34 35 35 34 33 34 36 38 40 40 40 40 39 39 39 39 39 40 40 40 41 41 41 42 43 44 45 46 47 48 49 50 50 51 51 52 54 53 53 56 58
52 49 50 51 49 50 49 47 45 44 44 44 43 41 41 41 40 39 37 36 35 35 35 37 38 36 34 35 38 40 42 42 42 42 42 42 41 41 42 42 43 43 42 42 43 44 45 46 47 48 49 49 50 51 52 52 53 54 55 56 56 58 58
56 54 53 52 50 51 51 49 48 49 48 47 45 43 43 44 43 42 40 38 37 37 37 37 38 37 36 36 40 43 44 45 45 45 45 44 43 43 43 44 44 44 44 44 45 45 47 48 48 50 51 51 52 53 53 54 54 56 57 57 59 60 58
57 57 57 56 53 53 54 52 51 53 52 49 47 47 47 47 46 44 43 41 40 40 40 39 40 42 42 42 44 47 47 47 47 47 47 47 46 45 45 45 45 45 46 46 47 47 48 49 50 51 52 53 54 54 55 56 56 57 58 59 61 59 58
59 59 59 59 57 56 55 54 54 55 54 51 50 50 50 50 49 47 45 45 44 43 43 44 46 47 47 47 48 50 50 50 50 50 49 49 48 47 47 47 46 47 48 48 49 50 50 51 52 53 53 54 55 55 56 57 58 59 59 59 60 59 60
64 63 62 61 61 59 58 57 57 56 56 55 54 53 52 51 51 49 47 47 47 46 46 47 49 50 49 50 51 51 51 51 51 51 51 50 50 50 49 49 49 49 49 50 50 51 53 53 54 54 55 57 57 57 57 58 59 60 61 61 61 62 63
68 67 65 63 63 62 61 60 59 58 59 58 56 54 53 52 52 51 49 49 49 49 48 49 51 52 51 52 53 53 53 53 52 51 52 52 52 53 52 52 51 51 52 52 52 53 55 56 57 57 57 57 59 59 59 59 59 61 63 64 65 65 64
71 71 68 66 65 65 63 62 61 61 60 59 58 56 55 54 55 53 51 51 52 51 51 51 52 54 54 54 55 55 55 55 54 53 53 55 55 55 55 54 54 54 54 55 55 56 57 58 60 59 59 62 62 60 58 59 60 62 63 65 66 64 63
74 74 72 69 68 67 66 64 63 61 60 60 60 58 57 57 57 56 54 53 53 53 52 52 54 56 57 57 58 59 58 57 55 55 55 56 57 57 56 56 56 56 56 57 57 58 59 61 62 63 65 63 57 54 57 61 62 62 61 61 62 62 62
79 77 74 72 72 72 69 67 66 63 62 62 62 60 59 59 59 58 56 54 53 53 53 54 56 58 59 60 61 61 61 59 57 56 57 58 58 58 58 58 58 58 58 58 59 60 61 62 63 65 62 56 53 59 67 68 66 63 60 57 56 58 61
83 80 75 72 73 74 70 68 69 68 65 64 64 63 61 61 60 58 56 55 54 54 55 56 58 60 62 62 63 64 63 61 59 58 59 60 60 60 60 60 60 60 60 61 62 62 63 63 64 66 63 61 65 72 74 71 69 67 63 57 53 54 61
85 84 81 77 77 76 73 71 72 72 69 66 66 65 63 62 61 58 56 55 55 56 57 58 60 62 64 65 66 66 65 63 61 61 62 62 63 63 63 63 62 62 62 63 64 65 65 65 65 67 68 69 71 73 72 72 72 70 66 61 56 56 62
87 87 88 86 83 80 77 75 75 75 73 70 69 67 65 64 62 60 58 58 58 59 59 60 61 63 66 67 68 68 67 66 65 65 65 65 66 66 66 65 65 64 64 65 66 68 68 68 68 69 70 71 72 72 73 74 73 72 70 67 63 61 62
91 90 90 89 86 83 81 79 78 79 76 74 72 70 67 66 64 62 61 61 60 61 61 61 61 63 66 68 69 70 70 70 69 68 68 69 69 68 68 68 67 67 66 66 68 70 71 71 72 73 73 74 74 74 74 74 75 75 74 72 70 67 66
91 92 92 90 89 88 86 84 82 81 79 78 77 75 71 69 67 64 63 63 62 62 62 60 59 62 66 69 70 71 72 73 73 72 72 72 71 71 71 70 69 68 68 69 70 71 73 74 75 76 76 76 77 76 76 76 76 76 75 73 72 70 71
88 92 93 93 92 92 91 88 85 83 81 80 80 78 74 72 70 68 66 65 64 63 62 61 61 63 67 69 71 73 75 76 76 76 76 76 75 75 74 73 72 71 71 71 72 73 75 77 77 78 78 79 79 79 78 77 77 76 74 73 71 71 72
84 89 91 93 94 95 94 91 88 86 83 81 81 80 78 74 72 70 68 67 65 64 63 63 63 65 68 71 74 76 78 80 81 82 82 81 80 79 79 78 76 75 74 73 75 77 78 79 79 79 80 81 81 81 79 78 77 75 73 72 71 71 72
80 83 87 90 93 95 95 93 90 87 84 81 81 82 81 77 74 71 69 67 65 63 64 65 66 67 70 73 76 79 81 83 86 87 86 86 85 84 83 81 78 76 74 75 77 79 81 81 80 80 81 82 82 81 80 79 77 75 73 72 71 71 72
74 78 82 86 90 93 94 94 92 89 85 82 83 84 84 80 75 72 70 67 64 64 66 67 68 70 72 75 78 81 83 86 88 89 88 87 87 86 83 80 77 75 75 77 79 81 83 82 82 82 82 83 82 82 81 80 77 75 74 73 72 72 73
68 71 76 80 85 89 91 92 93 91 88 85 84 85 85 81 76 72 70 67 64 64 67 68 69 71 74 76 79 80 83 86 89 89 88 87 87 86 83 79 76 75 76 77 80 82 83 83 84 83 83 82 82 82 80 78 77 75 74 73 73 73 74
65 67 71 75 79 82 84 87 89 89 89 87 85 84 84 80 75 72 71 69 68 68 68 67 67 70 73 76 78 81 84 88 90 89 89 89 89 87 83 79 77 76 76 77 80 83 84 85 86 85 83 82 80 78 77 77 76 74 74 74 74 74 75
61 63 67 71 74 75 78 81 84 86 87 85 83 82 80 76 74 73 72 70 71 71 67 63 64 68 71 73 75 78 79 81 81 81 81 80 81 82 81 78 76 74 74 76 79 82 84 85 86 85 82 80 77 75 76 76 75 74 75 75 75 75 77
58 58 62 67 71 73 74 75 77 80 81 80 78 77 75 74 77 78 75 71 71 70 66 60 58 60 63 66 67 66 64 63 62 62 62 63 67 68 67 66 67 70 72 76 79 82 83 84 84 84 81 78 76 77 77 76 75 75 76 76 76 77 79
56 55 57 62 67 70 70 69 70 72 72 71 69 68 68 73 78 78 73 70 70 72 70 63 55 52 54 58 59 58 55 53 51 53 57 61 62 61 60 63 68 72 75 77 80 81 81 80 82 83 82 80 79 78 77 76 76 76 76 76 77 79 79
51 49 51 56 62 64 64 64 63 62 62 62 62 62 67 72 74 71 66 63 64 71 76 71 62 58 57 58 61 63 62 59 60 63 66 67 67 67 69 73 75 76 76 78 78 79 79 79 81 83 83 81 79 77 77 78 78 77 77 78 79 79 78
45 43 45 50 55 57 57 57 57 55 55 56 57 58 62 65 64 62 60 56 57 65 71 68 65 66 65 64 69 74 73 72 74 76 77 77 78 78 78 78 78 78 79 78 78 79 80 82 84 85 84 81 79 77 78 81 80 79 79 79 79 78 77
43 41 41 44 47 48 48 48 48 48 49 50 51 52 54 54 53 55 54 50 51 58 62 60 61 65 68 70 76 81 82 83 84 85 86 87 86 82 80 79 79 80 81 80 80 82 83 83 85 85 83 81 80 79 80 82 82 80 79 79 79 77 78
42 39 37 36 35 34 34 35 36 37 38 41 43 46 49 51 53 54 52 48 50 56 61 63 65 66 69 74 77 79 82 84 85 84 84 84 81 79 79 78 78 80 82 81 81 82 83 84 85 84 83 82 81 80 81 82 82 80 78 77 77 77 78
41 38 35 33 31 30 28 28 28 27 28 34 39 41 44 49 53 55 53 51 52 58 66 72 73 73 74 76 75 73 73 76 77 76 75 74 75 78 80 80 79 80 82 81 81 82 84 84 84 83 83 83 81 80 80 79 79 78 77 76 76 77 78
Wind_Direction
227 230 234 236 237 240 243 246 248 249 250 250 250 251 253 253 252 257 259 256 254 253 256 265 274 283 290 294 299 304 306 306 305 303 300 299 300 305 311 314 316 319 319 319 321 321 320 319 318 318 319 321 321 322 324 325 325 325 326 326 326 326 326
230 233 234 237 238 241 244 247 249 250 250 250 249 249 252 254 252 256 262 261 263 267 267 270 276 282 288 292 298 302 303 303 301 299 298 297 300 307 311 312 315 317 317 318 319 318 317 316 316 318 319 319 320 321 322 322 322 323 323 324 325 325 325
231 236 236 238 241 242 244 246 248 249 249 249 249 249 253 256 253 253 258 262 267 274 276 277 278 282 286 291 296 299 300 300 298 296 295 297 302 307 308 310 314 316 315 316 317 317 316 316 317 319 319 318 318 319 319 319 320 321 322 323 324 324 324
233 238 237 239 242 242 243 246 247 248 251 252 252 253 255 256 255 254 257 261 267 274 279 280 280 281 285 289 293 296 297 296 295 294 294 298 302 306 307 309 311 312 313 312 314 316 318 318 319 320 319 319 318 318 317 319 321 322 324 325 325 325 324
233 239 238 238 242 242 242 245 247 249 251 252 253 254 255 254 254 255 256 259 264 271 276 279 280 281 283 286 290 293 294 292 292 293 295 299 302 304 307 308 309 309 309 310 312 315 318 319 319 319 319 319 319 318 318 320 322 323 325 325 326 326 323
232 238 241 239 240 241 241 243 247 249 249 250 252 252 252 253 254 255 256 259 263 268 272 275 278 279 280 284 287 290 290 290 291 292 295 298 300 303 305 307 307 306 306 309 311 314 317 317 317 318 318 319 319 318 319 321 323 324 325 326 327 327 324
231 235 241 242 241 239 240 242 245 248 248 248 250 251 252 255 257 258 260 262 265 267 268 271 276 278 278 281 285 287 288 288 290 292 295 297 298 301 304 304 305 305 306 309 311 313 315 316 315 316 317 318 318 319 320 321 323 324 325 325 326 327 326
233 234 239 243 244 241 238 241 244 246 248 249 250 251 252 255 258 261 264 267 268 268 266 267 272 275 276 279 282 284 285 287 289 291 293 295 297 299 301 302 303 305 307 309 310 312 314 314 315 316 317 317 318 319 320 321 322 324 325 325 324 324 326
232 235 239 241 245 246 241 241 245 247 249 251 252 253 255 256 259 262 266 270 272 272 269 266 268 271 274 277 280 282 284 285 288 290 292 293 295 298 300 301 302 304 306 308 310 312 313 315 316 316 317 317 317 318 319 320 321 322 324 324 322 322 324
231 232 238 240 243 247 246 243 245 247 249 251 252 254 256 258 259 261 264 267 270 273 272 266 264 268 272 276 279 280 283 285 287 289 291 292 294 296 298 299 301 304 306 308 310 312 313 314 315 315 315 315 316 316 317 318 319 321 322 322 321 321 322
233 231 236 239 240 245 248 247 246 247 248 250 251 253 256 257 258 259 261 263 266 269 271 267 263 265 270 274 277 279 283 285 286 288 290 291 293 295 297 298 300 303 306 308 310 311 312 313 313 313 313 314 314 315 316 317 318 319 321 321 321 321 322
234 233 235 238 238 241 245 246 247 247 247 248 250 252 254 256 256 257 259 260 262 264 268 266 262 264 270 273 275 279 282 284 284 286 288 290 292 294 295 298 300 302 305 307 309 310 311 311 312 312 312 313 313 314 315 316 317 318 319 320 321 321 321
235 236 237 238 238 239 242 243 244 246 246 247 248 249 251 253 254 255 257 258 259 260 262 262 262 266 270 272 274 277 280 282 283 285 287 289 291 293 294 296 299 302 305 307 308 309 310 310 310 310 311 311 311 312 313 314 315 317 318 320 322 320 320
237 237 238 238 238 238 240 241 243 245 246 246 246 247 248 250 252 253 255 257 258 258 260 261 263 267 270 271 273 276 279 281 282 284 286 288 290 292 294 296 299 302 304 306 308 309 309 309 309 309 309 310 310 311 312 313 314 316 318 320 321 319 318
239 238 237 238 239 238 239 240 241 243 245 246 246 246 248 250 251 253 254 257 259 260 261 263 265 267 269 271 273 275 278 280 281 283 285 287 289 291 294 296 299 301 302 305 307 307 308 308 307 307 307 307 308 309 310 312 314 316 317 319 320 319 319
240 241 240 239 240 240 240 240 240 241 243 245 246 247 248 250 252 253 255 257 259 260 262 263 265 266 268 271 273 275 277 278 280 282 285 287 289 291 294 296 298 299 301 304 305 306 306 306 306 307 306 305 306 307 308 311 314 316 318 320 321 321 320
241 243 243 242 242 242 241 241 241 240 242 244 246 247 248 250 252 253 254 256 258 260 261 263 265 267 270 271 273 275 276 277 280 282 285 287 288 291 294 296 297 299 300 302 304 304 304 305 305 306 306 305 305 305 308 311 315 317 319 322 323 321 319
241 242 243 243 244 244 244 244 243 243 243 244 246 247 248 249 251 252 253 255 256 259 261 264 266 269 271 272 274 275 276 278 281 283 285 287 289 291 294 296 297 298 300 301 302 302 302 303 305 306 307 307 304 304 309 313 315 317 320 323 323 318 315
241 241 243 243 244 245 245 246 246 245 244 246 247 247 248 249 250 251 253 254 256 260 263 265 267 269 271 273 274 275 277 279 281 283 285 288 290 292 294 295 296 297 299 300 300 300 301 303 304 306 308 307 305 307 311 314 315 316 319 322 319 311 308
241 241 241 241 242 243 244 246 247 247 246 247 248 248 248 249 250 251 252 255 258 261 263 265 267 270 272 274 275 276 278 280 281 283 287 288 290 292 293 294 295 296 297 299 299 300 301 302 304 305 306 306 306 308 310 312 313 314 316 319 316 305 301
242 242 241 241 241 242 243 244 247 248 248 247 248 250 251 251 252 254 256 258 260 262 264 266 268 270 272 274 275 277 279 281 283 285 288 289 290 291 293 294 295 296 297 298 299 299 300 302 303 304 304 304 304 306 308 309 310 311 313 315 312 304 301
241 242 242 242 242 242 243 244 246 247 248 248 248 250 252 253 255 258 259 259 260 262 263 265 268 270 273 274 276 278 281 284 285 287 288 289 290 291 292 293 295 296 297 299 299 299 300 301 301 301 301 301 302 304 305 307 308 309 310 311 310 307 304
239 240 241 242 243 242 242 243 245 246 248 248 249 250 252 253 254 256 258 259 260 262 263 266 269 272 274 276 279 281 284 286 287 288 289 290 290 290 292 293 294 295 297 298 298 299 299 300 300 300 301 301 302 303 305 306 307 309 310 311 311 311 310
238 239 240 241 242 242 241 241 242 244 246 248 249 249 250 251 253 254 256 258 260 262 265 268 271 273 276 279 281 284 286 287 288 289 289 290 290 290 292 292 292 294 296 296 297 298 298 298 299 300 301 302 303 304 306 307 308 309 311 312 313 313 313
240 240 240 240 241 242 242 242 242 243 244 247 249 250 250 251 252 254 257 259 260 263 267 270 272 274 277 280 283 286 287 288 288 289 290 290 289 289 290 291 291 292 295 295 296 296 296 296 297 299 301 302 303 305 306 307 308 310 311 312 313 313 313
241 241 241 241 241 242 243 243 243 243 244 246 249 251 251 251 252 254 257 260 262 265 270 273 275 278 281 283 286 287 288 288 289 290 291 291 289 288 289 289 290 292 293 294 294 294 295 296 297 299 300 302 303 304 305 306 308 309 310 311 312 312 311
241 242 242 242 242 242 243 244 244 245 246 247 250 252 254 254 255 256 258 260 264 268 272 275 278 280 282 284 285 286 287 288 288 289 289 289 287 286 287 288 289 289 290 292 292 292 293 295 297 299 300 301 302 303 305 306 307 309 310 311 311 311 310
244 244 243 243 243 243 243 243 243 244 244 246 249 252 254 254 255 257 260 262 266 269 273 275 278 280 281 281 282 283 284 285 285 286 286 285 283 283 284 286 286 287 288 290 291 292 293 295 297 298 300 300 301 303 305 306 307 308 309 310 311 310 309
248 247 246 245 244 244 244 244 244 243 243 243 245 249 252 254 255 258 261 264 266 268 271 274 276 277 278 278 279 280 281 282 283 284 283 282 281 281 282 283 284 285 288 289 290 291 293 294 296 297 299 300 301 303 304 305 306 307 307 308 309 308 307
250 249 248 248 246 245 245 245 245 245 244 243 244 247 251 255 258 259 261 263 265 266 267 270 273 275 277 278 279 280 280 281 281 281 280 280 280 279 279 280 282 284 286 287 289 291 292 294 295 296 298 299 300 302 303 303 304 305 306 306 306 306 306
250 249 249 249 249 248 246 245 244 245 244 243 243 245 249 254 257 259 259 261 262 263 266 270 275 278 280 282 282 281 280 281 281 282 283 282 280 278 278 279 280 282 284 287 289 291 293 294 295 296 297 298 300 300 301 301 302 303 304 304 304 304 304
249 249 249 249 249 249 248 246 245 245 245 244 244 244 246 249 252 254 256 258 259 261 265 271 277 278 278 281 281 279 279 282 284 284 281 275 275 278 280 280 281 284 287 289 290 292 293 294 294 295 296 297 298 299 299 300 301 302 302 302 302 303 304
249 250 251 251 250 249 250 249 247 246 246 246 245 244 244 246 249 252 255 258 261 263 263 266 270 268 265 267 269 267 267 268 268 266 261 260 267 276 280 283 288 291 292 292 292 293 293 292 293 293 294 296 297 298 298 299 300 301 301 300 301 302 304
249 251 252 252 251 250 250 249 249 247 245 244 243 241 240 242 245 249 252 255 259 262 261 260 260 256 252 250 251 251 250 248 247 248 251 257 266 275 281 288 292 294 293 293 292 291 290 290 290 292 293 294 295 296 296 297 298 298 298 299 301 303 305
249 251 251 250 248 248 247 247 246 243 240 237 237 236 237 238 241 244 247 249 252 255 256 255 253 250 247 242 241 243 244 242 242 244 250 258 267 275 281 287 290 290 290 290 289 288 287 288 289 290 292 292 292 293 294 295 295 296 297 299 302 304 305
248 247 245 244 245 245 245 245 243 240 237 233 233 236 237 236 236 236 238 241 243 243 244 245 245 246 246 242 240 242 244 244 247 251 256 263 269 274 279 284 286 287 287 286 286 286 287 287 288 289 289 289 290 291 292 293 294 296 298 301 303 305 306
242 238 235 237 240 239 239 239 238 237 235 233 232 234 234 229 225 224 226 229 230 230 231 232 234 238 241 241 242 244 246 248 252 256 259 263 267 273 279 282 284 284 285 285 286 286 286 286 287 287 287 288 290 291 292 293 295 297 299 301 303 305 307
232 230 227 226 225 222 222 224 221 218 224 229 228 226 227 226 223 220 221 225 225 223 224 227 229 232 237 240 242 244 247 250 252 254 257 262 268 275 280 282 282 283 283 284 285 285 285 285 285 286 287 289 290 291 293 295 297 299 300 302 304 305 307
Height
10974 10974 10975 10976 10977 10977 10978 10979 10981 10983 10984 10985 10986 10987 10988 10989 10990 10991 10992 10992 10992 10992 10992 10993 10995 10996 10996 10995 10995 10995 10993 10992 10990 10988 10986 10983 10982 10982 10982 10982 10982 10981 10980 10979 10978 10976 10975 10973 10971 10970 10968 10967 10965 10962 10960 10958 10956 10954 10951 10949 10947 10945 10943
10970 10971 10971 10972 10973 10974 10976 10977 10979 10980 10981 10982 10983 10984 10984 10985 10987 10989 10990 10990 10990 10990 10990 10990 10992 10993 10993 10993 10992 10992 10991 10989 10987 10985 10983 10981 10981 10981 10980 10980 10980 10979 10978 10976 10975 10973 10972 10970 10968 10967 10966 10964 10963 10961 10958 10956 10954 10952 10950 10947 10945 10942 10940
10966 10966 10967 10969 10969 10972 10974 10975 10976 10977 10978 10979 10980 10981 10981 10983 10985 10986 10987 10987 10988 10988 10987 10988 10989 10990 10990 10990 10989 10989 10988 10986 10983 10981 10980 10979 10979 10979 10978 10978 10978 10977 10975 10974 10972 10970 10968 10966 10964 10963 10962 10961 10960 10959 10956 10954 10952 10950 10947 10945 10942 10940 10937
10962 10961 10963 10965 10965 10968 10971 10972 10973 10974 10975 10976 10977 10978 10979 10980 10982 10983 10984 10984 10984 10985 10985 10985 10986 10986 10987 10987 10986 10986 10984 10982 10980 10978 10977 10977 10977 10976 10976 10975 10975 10974 10973 10971 10970 10968 10965 10963 10961 10959 10958 10957 10956 10955 10953 10951 10948 10946 10943 10941 10939 10936 10934
10958 10957 10959 10962 10962 10964 10967 10968 10968 10970 10972 10973 10974 10975 10976 10977 10978 10979 10980 10980 10980 10981 10981 10982 10982 10983 10983 10983 10983 10982 10980 10978 10976 10974 10974 10974 10974 10974 10973 10973 10972 10971 10970 10969 10967 10965 10963 10961 10958 10955 10953 10952 10951 10949 10948 10946 10944 10942 10939 10937 10935 10932 10930
10955 10954 10954 10956 10958 10960 10963 10964 10964 10966 10968 10970 10971 10972 10972 10973 10974 10975 10976 10976 10976 10977 10977 10978 10979 10979 10980 10980 10979 10978 10976 10973 10972 10971 10972 10972 10971 10971 10970 10970 10969 10968 10967 10966 10964 10962 10961 10959 10956 10954 10951 10948 10947 10945 10943 10941 10940 10938 10935 10932 10930 10928 10926
10951 10951 10950 10951 10952 10955 10958 10959 10961 10962 10964 10966 10967 10967 10968 10969 10971 10971 10972 10972 10972 10973 10974 10975 10975 10976 10976 10976 10975 10974 10971 10969 10968 10968 10969 10969 10968 10967 10967 10966 10965 10964 10963 10962 10961 10959 10958 10957 10955 10952 10949 10946 10944 10941 10939 10937 10935 10933 10931 10928 10925 10923 10921
10944 10946 10946 10945 10945 10949 10953 10955 10957 10959 10959 10961 10962 10963 10964 10965 10966 10968 10968 10968 10968 10969 10970 10971 10972 10972 10972 10971 10971 10969 10966 10965 10965 10965 10965 10965 10965 10964 10963 10962 10961 10960 10959 10958 10957 10956 10955 10953 10951 10949 10946 10943 10940 10937 10935 10933 10931 10929 10927 10924 10921 10919 10917
10938 10941 10941 10941 10939 10942 10947 10951 10952 10954 10955 10956 10957 10958 10959 10961 10962 10964 10964 10964 10965 10965 10966 10968 10968 10968 10967 10967 10966 10964 10962 10961 10961 10961 10961 10961 10961 10960 10959 10958 10957 10957 10956 10954 10953 10952 10950 10949 10947 10945 10942 10939 10936 10933 10931 10929 10927 10925 10923 10920 10917 10915 10912
10932 10935 10934 10936 10936 10936 10941 10945 10947 10949 10950 10950 10952 10953 10954 10956 10958 10959 10960 10961 10961 10961 10962 10964 10964 10963 10963 10962 10961 10959 10957 10957 10957 10957 10957 10957 10957 10956 10955 10954 10953 10953 10952 10951 10949 10947 10946 10944 10943 10941 10938 10936 10933 10930 10928 10925 10923 10921 10919 10916 10913 10910 10906
10924 10927 10928 10930 10933 10933 10934 10938 10941 10943 10944 10945 10947 10949 10950 10951 10953 10954 10956 10957 10957 10957 10958 10959 10959 10959 10958 10957 10955 10953 10953 10953 10953 10953 10953 10953 10953 10952 10951 10949 10949 10948 10947 10946 10945 10943 10941 10940 10938 10936 10934 10931 10929 10926 10924 10922 10919 10917 10915 10912 10908 10905 10901
10918 10920 10921 10924 10928 10929 10928 10931 10935 10936 10937 10939 10942 10944 10945 10946 10948 10950 10951 10952 10953 10953 10953 10954 10954 10953 10954 10953 10950 10948 10948 10949 10949 10949 10948 10948 10948 10948 10947 10946 10944 10943 10943 10942 10941 10939 10937 10935 10933 10932 10930 10927 10924 10922 10920 10917 10915 10913 10911 10908 10904 10900 10897
10913 10915 10915 10918 10922 10924 10923 10926 10927 10928 10931 10934 10937 10939 10940 10941 10943 10945 10947 10947 10948 10948 10949 10949 10949 10948 10949 10948 10946 10944 10944 10944 10945 10944 10944 10944 10944 10943 10943 10942 10940 10939 10938 10937 10936 10935 10933 10931 10929 10927 10926 10923 10921 10918 10915 10912 10911 10909 10907 10904 10901 10897 10893
10905 10907 10909 10912 10915 10918 10919 10920 10921 10922 10926 10930 10932 10933 10934 10935 10937 10940 10941 10942 10942 10944 10944 10944 10943 10942 10943 10943 10941 10939 10939 10940 10940 10940 10940 10939 10938 10938 10938 10937 10937 10935 10934 10933 10931 10930 10929 10927 10925 10923 10921 10919 10916 10914 10911 10908 10906 10904 10903 10902 10898 10894 10890
10894 10897 10901 10905 10908 10912 10913 10914 10915 10918 10920 10923 10925 10927 10929 10930 10932 10934 10936 10937 10937 10939 10940 10940 10938 10937 10938 10937 10935 10935 10935 10935 10936 10936 10935 10934 10933 10933 10933 10932 10932 10931 10930 10929 10927 10925 10924 10922 10921 10919 10918 10915 10912 10910 10907 10904 10902 10900 10898 10898 10895 10891 10887
10885 10888 10893 10898 10901 10904 10906 10907 10909 10911 10913 10915 10918 10921 10924 10925 10926 10928 10931 10932 10932 10933 10935 10935 10932 10931 10932 10931 10929 10930 10931 10931 10932 10932 10931 10929 10928 10928 10928 10928 10927 10926 10925 10924 10923 10921 10919 10917 10915 10914 10913 10910 10906 10904 10902 10900 10898 10895 10893 10892 10890 10886 10882
10879 10880 10884 10890 10892 10896 10899 10901 10903 10905 10907 10910 10912 10914 10917 10918 10920 10922 10925 10926 10926 10927 10929 10929 10927 10925 10926 10925 10924 10924 10925 10926 10927 10928 10926 10925 10924 10923 10923 10923 10922 10921 10920 10919 10918 10916 10914 10911 10908 10907 10906 10903 10900 10897 10895 10894 10893 10892 10890 10887 10884 10880 10876
10870 10871 10875 10881 10883 10886 10891 10893 10896 10900 10902 10904 10905 10908 10911 10912 10913 10916 10919 10921 10921 10922 10923 10924 10923 10920 10919 10920 10919 10918 10919 10921 10923 10923 10922 10920 10919 10919 10919 10918 10917 10916 10915 10914 10913 10911 10908 10905 10902 10899 10897 10895 10893 10891 10888 10887 10887 10888 10887 10885 10879 10873 10870
10858 10863 10868 10873 10875 10877 10882 10885 10888 10892 10896 10897 10898 10901 10904 10905 10907 10910 10913 10915 10917 10918 10919 10919 10917 10914 10913 10914 10914 10913 10914 10917 10919 10919 10918 10917 10915 10915 10915 10913 10912 10911 10910 10909 10908 10906 10903 10900 10896 10892 10890 10888 10885 10883 10880 10879 10880 10883 10885 10885 10879 10869 10863
10848 10855 10859 10863 10866 10869 10874 10878 10879 10882 10887 10889 10890 10893 10896 10898 10901 10904 10907 10910 10912 10914 10914 10913 10911 10909 10908 10908 10908 10908 10909 10912 10914 10915 10914 10912 10911 10910 10910 10908 10907 10906 10905 10904 10902 10900 10898 10894 10890 10886 10884 10882 10879 10876 10874 10872 10873 10874 10878 10883 10881 10869 10860
10841 10845 10849 10853 10858 10863 10868 10871 10871 10873 10878 10882 10883 10884 10888 10890 10893 10898 10902 10905 10907 10908 10908 10908 10907 10905 10903 10903 10902 10902 10904 10907 10909 10910 10909 10908 10906 10905 10904 10903 10902 10900 10899 10898 10896 10893 10891 10888 10885 10881 10878 10876 10874 10872 10869 10867 10866 10866 10868 10874 10875 10867 10857
10832 10833 10837 10842 10849 10855 10860 10863 10864 10865 10869 10874 10876 10878 10882 10885 10888 10892 10896 10898 10900 10901 10902 10903 10903 10901 10898 10898 10897 10897 10899 10902 10904 10904 10904 10902 10901 10899 10898 10897 10895 10894 10893 10891 10889 10885 10882 10881 10879 10876 10874 10872 10869 10867 10865 10862 10860 10858 10858 10860 10862 10859 10852
10819 10820 10824 10830 10837 10843 10849 10854 10856 10858 10862 10867 10870 10874 10878 10880 10884 10887 10889 10892 10895 10896 10898 10900 10901 10899 10895 10893 10892 10892 10893 10895 10896 10898 10898 10896 10895 10893 10891 10890 10889 10887 10886 10885 10882 10878 10875 10873 10871 10868 10867 10864 10862 10860 10859 10856 10852 10850 10848 10846 10845 10844 10840
10808 10810 10813 10819 10823 10828 10835 10842 10846 10849 10854 10858 10861 10866 10872 10875 10878 10882 10885 10887 10890 10892 10895 10898 10901 10898 10893 10890 10889 10888 10888 10888 10889 10891 10891 10890 10888 10886 10885 10884 10882 10881 10880 10878 10875 10872 10869 10865 10862 10860 10858 10856 10853 10852 10851 10849 10844 10841 10838 10834 10831 10828 10825
10801 10803 10806 10811 10815 10817 10823 10831 10837 10840 10846 10850 10852 10858 10865 10869 10872 10877 10880 10883 10886 10889 10893 10896 10898 10896 10892 10888 10886 10885 10883 10881 10881 10883 10884 10883 10882 10880 10878 10876 10875 10874 10872 10870 10868 10865 10861 10858 10855 10853 10850 10848 10845 10843 10842 10840 10836 10833 10830 10826 10822 10818 10815
10791 10795 10800 10805 10808 10810 10814 10821 10829 10834 10840 10844 10846 10848 10855 10860 10865 10870 10875 10878 10882 10887 10890 10893 10895 10894 10891 10886 10883 10880 10877 10874 10873 10873 10874 10874 10872 10871 10870 10868 10867 10865 10864 10861 10859 10855 10852 10850 10848 10846 10843 10840 10837 10834 10833 10831 10829 10826 10823 10819 10816 10812 10808
10781 10787 10792 10796 10798 10801 10806 10813 10822 10830 10836 10841 10842 10840 10844 10851 10857 10863 10869 10874 10879 10884 10887 10888 10889 10890 10887 10882 10876 10872 10870 10866 10863 10862 10862 10861 10860 10859 10858 10858 10858 10856 10854 10852 10849 10845 10842 10842 10841 10839 10836 10832 10828 10825 10824 10822 10820 10818 10815 10811 10808 10804 10801
10776 10779 10783 10786 10788 10792 10797 10803 10811 10820 10828 10834 10834 10832 10833 10840 10847 10855 10863 10869 10875 10878 10878 10879 10880 10880 10877 10872 10867 10863 10860 10855 10852 10851 10850 10849 10847 10847 10848 10849 10848 10847 10845 10843 10839 10835 10834 10834 10834 10832 10829 10824 10820 10818 10816 10813 10811 10809 10806 10803 10800 10796 10793
10771 10772 10774 10777 10779 10783 10789 10793 10800 10809 10817 10823 10827 10825 10824 10831 10842 10851 10857 10862 10866 10867 10866 10867 10867 10865 10863 10860 10856 10853 10848 10843 10840 10839 10840 10839 10838 10838 10839 10840 10840 10839 10837 10835 10830 10827 10826 10826 10825 10824 10822 10817 10815 10812 10809 10806 10804 10802 10799 10796 10792 10789 10785
10763 10764 10765 10767 10769 10775 10781 10785 10791 10798 10806 10814 10822 10823 10823 10829 10839 10845 10848 10851 10853 10853 10854 10855 10854 10851 10850 10849 10848 10845 10840 10835 10831 10830 10829 10829 10829 10829 10830 10831 10832 10832 10830 10826 10822 10820 10819 10817 10815 10815 10814 10811 10809 10806 10802 10799 10797 10795 10792 10789 10786 10782 10779
10753 10755 10757 10758 10761 10765 10771 10776 10780 10785 10793 10804 10814 10819 10822 10828 10831 10833 10836 10840 10841 10841 10844 10846 10845 10843 10842 10840 10838 10834 10829 10823 10821 10820 10820 10821 10820 10820 10822 10825 10825 10824 10822 10818 10814 10812 10810 10808 10806 10805 10805 10804 10802 10799 10795 10792 10791 10788 10785 10782 10779 10775 10771
10746 10747 10748 10749 10751 10755 10760 10766 10771 10776 10783 10794 10804 10811 10818 10821 10819 10818 10823 10828 10831 10834 10839 10843 10843 10842 10842 10840 10837 10833 10827 10823 10822 10820 10819 10820 10819 10817 10817 10818 10817 10815 10813 10810 10807 10805 10802 10799 10797 10796 10797 10797 10794 10790 10787 10785 10784 10781 10777 10774 10771 10767 10764
10740 10741 10742 10741 10743 10747 10752 10757 10762 10768 10777 10786 10795 10803 10809 10808 10807 10810 10816 10822 10826 10829 10834 10839 10841 10841 10841 10842 10842 10841 10838 10836 10833 10827 10819 10816 10814 10812 10811 10809 10808 10806 10804 10802 10800 10797 10794 10792 10789 10788 10789 10789 10786 10782 10778 10776 10776 10774 10770 10766 10764 10760 10756
10734 10735 10735 10734 10736 10740 10745 10750 10754 10761 10769 10777 10784 10789 10793 10793 10796 10803 10811 10818 10824 10826 10828 10833 10835 10833 10832 10834 10835 10833 10832 10831 10829 10822 10813 10808 10806 10804 10802 10800 10799 10798 10796 10795 10794 10790 10787 10785 10783 10781 10781 10781 10779 10776 10771 10767 10768 10767 10763 10759 10756 10753 10748
10726 10727 10727 10727 10729 10733 10738 10742 10747 10753 10759 10765 10771 10775 10778 10782 10788 10795 10800 10809 10819 10822 10823 10827 10827 10820 10819 10822 10821 10817 10817 10816 10814 10811 10807 10802 10799 10797 10795 10794 10793 10791 10791 10790 10788 10784 10782 10780 10777 10775 10774 10774 10773 10771 10765 10759 10759 10760 10756 10751 10748 10744 10740
10718 10719 10720 10720 10723 10728 10733 10738 10742 10747 10752 10757 10762 10767 10771 10776 10782 10787 10790 10797 10809 10814 10816 10819 10817 10808 10805 10807 10806 10804 10804 10804 10804 10805 10802 10797 10794 10793 10791 10789 10787 10785 10784 10784 10781 10778 10777 10775 10771 10768 10767 10766 10766 10766 10760 10752 10751 10752 10748 10743 10739 10736 10732
10711 10713 10715 10716 10720 10725 10729 10734 10739 10744 10749 10754 10757 10760 10764 10768 10771 10775 10778 10785 10797 10803 10803 10804 10802 10796 10792 10793 10794 10795 10796 10797 10799 10798 10794 10791 10790 10788 10786 10785 10783 10779 10776 10776 10774 10771 10769 10767 10763 10760 10758 10758 10758 10758 10753 10746 10743 10742 10740 10736 10732 10728 10724
10705 10707 10710 10713 10717 10721 10725 10730 10735 10739 10745 10749 10751 10753 10757 10760 10763 10766 10769 10775 10782 10784 10783 10784 10785 10783 10781 10783 10786 10788 10789 10789 10788 10785 10782 10782 10784 10782 10779 10778 10777 10773 10770 10768 10767 10764 10760 10757 10755 10752 10751 10750 10750 10748 10744 10739 10734 10732 10730 10727 10724 10721 10717